User: anonymous   Login
Location: Caltech
(34.1382°N, 118.1253°W)
Time: 09:53:01
(UTC-07:00)
Language:

ASTRO E2 - Orbit

View from above orbital plane
View from above orbital plane
View from above satellite
View from above satellite

Ground track
Ground track

The orbit data is extracted from the following two-line orbital elements,

1 28773U 05025A   14296.81773154  .00008024  00000-0  47839-3 0  3966
2 28773 031.3834 070.8150 0005586 028.6382 097.9782 15.09884346510641
Epoch (UTC): 23 October 2014 19:37:32
Eccentricity: 0.0005586
inclination: 31.3834°
perigee height: 532 km
apogee height: 540 km
right ascension of ascending node: 70.8150°
argument of perigee: 28.6382°
revolutions per day: 15.09884346
mean anomaly at epoch: 97.9782°
orbit number at epoch: 51064

The dashed part of the orbit path shows where the satellite is in the earth's shadow,  

DLR